[[{"header":{"parameterUnit":"m.s-1","parameterCategory":1,"la1":30.2991,"la2":30.254,"lo1":-89.0895,"lo2":-89.0444,"dy":0.0017,"dx":0.0017,"nx":28,"ny":28,"refTime":"2024-10-19T03:00:00:Z","depth":0,"parameterNumber":2,"parameterNumberName":"U-component_of_WINDS"},"data":[0,0,0,0,0,0,0,0,0,0,0,0,0,0,0,0,0,0,0,0,0,0,0,0,0,0,0,0,0,0,0,0,0,0,0,0,0,0,0,0,0,0,0,0,0,0,0,0,0,0,0,0,0,0,0,0,0,0,-2.1819,-2.182,0,-2.1887,-2.1888,-2.1888,-2.1864,-2.1862,-2.1861,-2.186,-2.1927,-2.193,-2.1933,0,0,0,0,0,0,0,0,0,0,0,0,0,-2.1668,-2.167,-2.1819,-2.182,-2.1821,-2.1887,-2.1888,-2.1889,-2.1864,-2.1862,-2.1861,-2.1859,-2.1926,-2.193,-2.1934,0,0,0,0,0,0,0,0,0,0,0,0,0,-2.1734,-2.1671,-2.1819,-2.1817,-2.1817,-2.1887,-2.1888,-2.1889,-2.1865,-2.1862,-2.186,-2.1858,-2.1925,-2.1929,-2.1934,-2.2009,0,0,-2.1949,-2.1951,0,0,0,0,0,0,0,0,-2.173,-2.174,-2.1816,-2.1817,-2.1817,-2.1865,-2.1859,-2.1929,-2.1865,-2.1846,-2.1859,-2.1857,-2.1908,-2.1914,-2.1932,-2.2012,-2.2015,-2.1949,-2.1952,-2.1954,-2.1956,0,0,0,0,0,0,0,-2.1726,-2.1737,-2.1846,-2.1817,-2.1818,-2.1812,-2.1819,-2.1872,-2.1889,-2.1848,-2.1846,-2.1855,-2.1908,-2.1927,-2.1933,-2.2016,-2.1949,-2.1953,-2.1956,-2.1958,-2.2163,-2.2166,0,0,0,0,0,0,-2.1721,-2.1733,-2.1844,-2.1848,-2.1768,-2.1816,-2.1824,-2.1852,-2.1888,-2.1892,-2.1857,-2.1853,-2.192,-2.1927,-2.1935,-2.2026,-2.1954,-2.1959,-2.1961,-2.2161,-2.2164,-2.2167,0,0,0,0,0,0,-2.1718,-2.1731,-2.1841,-2.179,-2.1803,-2.1821,-2.1853,-2.1854,-2.1873,-2.1895,-2.1898,-2.1873,-2.1918,-2.1929,-2.1991,-2.2028,-2.1961,-2.1965,-2.2158,-2.2162,-2.2165,-2.2207,0,0,0,0,0,0,-2.1714,-2.173,-2.1759,-2.1791,-2.1806,-2.1896,-2.1855,-2.1857,-2.1882,-2.1878,-2.1911,-2.1915,-2.1917,-2.1984,-2.1996,-2.2033,-2.1969,-2.2154,-2.2159,-2.2164,-2.2203,-2.2212,-2.222,0,0,0,0,0,-2.1708,-2.1767,-2.176,-2.1774,-2.1843,-2.1898,-2.1907,-2.191,-2.1885,-2.1914,-2.1928,-2.1913,-2.2023,-2.1991,-2.2004,-2.2043,-2.2152,-2.2158,-2.2164,-2.2199,-2.221,-2.222,0,0,0,0,0,0,-2.1738,-2.1771,-2.1764,-2.1835,-2.1864,-2.1894,-2.193,-2.1922,-2.1957,-2.1952,-2.1954,-2.1962,-2.2026,-2.2041,-2.2006,-2.2118,-2.2084,-2.2092,-2.2106,-2.2117,-2.2126,-2.212,-2.1973,0,0,0,0,0,-2.1753,-2.1796,-2.1822,-2.1883,-2.1898,-2.1912,-2.1936,-2.1936,-2.1966,-2.1977,-2.1996,-2.2025,-2.2066,-2.2092,-2.2131,-2.2206,-2.2212,-2.2239,-2.2248,-2.2255,-2.2262,-2.2303,-2.2315,-2.2185,-2.2185,-2.2185,0,0,-2.1784,-2.1807,-2.1834,-2.1889,-2.1912,-2.1956,-2.1922,-2.197,-2.2002,-2.1984,-2.2045,-2.206,-2.2093,-2.2162,-2.2193,-2.2176,-2.23,-2.2262,-2.2268,-2.2271,-2.231,-2.2322,-2.2333,-2.2189,-2.2189,-2.2188,0,0,-2.1862,-2.1885,-2.1938,-2.1961,-2.1996,-2.2006,-2.2019,-2.205,-2.206,-2.2121,-2.2109,-2.2148,-2.2218,-2.2242,-2.2263,-2.2354,-2.2341,-2.2366,-2.2411,-2.2451,-2.2461,-2.247,-2.2502,-2.2513,-2.2374,-2.2374,-2.2374,0,-2.1896,-2.1962,-2.1966,-2.2015,-2.204,-2.2028,-2.2081,-2.2104,-2.2149,-2.2166,-2.2147,-2.2236,-2.2257,-2.2332,-2.2354,-2.2372,-2.2387,-2.2361,-2.246,-2.2469,-2.2477,-2.2507,-2.2519,-2.2376,-2.2376,-2.2376,-2.2376,0,-2.2001,-2.2048,-2.2086,-2.2132,-2.2161,-2.2212,-2.2224,-2.2253,-2.2251,-2.2263,-2.2326,-2.2351,-2.2395,-2.2413,-2.2411,-2.2488,-2.2477,-2.2459,-2.2423,-2.2492,-2.2521,-2.2532,-2.238,-2.2379,-2.2379,-2.2378,0,0,-2.2097,-2.2146,-2.216,-2.2181,-2.222,-2.2256,-2.2307,-2.2351,-2.2376,-2.2409,-2.2451,-2.2512,-2.2496,-2.2521,-2.2522,-2.2557,-2.2627,-2.2535,-2.2536,-2.2551,-2.2713,-2.2725,-2.2739,-2.262,-2.2623,-2.2624,-2.271,0,-2.2178,-2.2268,-2.2274,-2.2356,-2.2398,-2.2389,-2.2434,-2.2462,-2.2475,-2.2513,-2.2527,-2.257,-2.2546,-2.2561,-2.2596,-2.2611,-2.266,-2.2605,-2.2659,-2.2661,-2.265,-2.2754,-2.2766,-2.2846,-2.2722,-2.2723,-2.2725,0,-2.2284,-2.2321,-2.2407,-2.2441,-2.2459,-2.2499,-2.254,-2.2577,-2.261,-2.2617,-2.2646,-2.2643,-2.2695,-2.266,-2.2732,-2.2695,-2.2718,-2.2729,-2.2733,-2.2736,-2.2696,-2.2759,-2.2872,-2.2883,-2.2742,-2.2741,-2.274,0,-2.2344,-2.2416,-2.2477,-2.2495,-2.2536,-2.2565,-2.2583,-2.2614,-2.2641,-2.2677,-2.2695,-2.2737,-2.2759,-2.2792,-2.2801,-2.2774,-2.2873,-2.2838,-2.288,-2.2879,-2.2899,-2.2897,-2.3015,-2.2916,-2.2916,-2.2916,-2.2916,0,-2.2433,-2.2485,-2.2504,-2.2542,-2.2601,-2.2608,-2.2666,-2.2683,-2.2711,-2.2751,-2.2746,-2.2784,-2.2793,-2.2833,-2.284,-2.2899,-2.291,-2.2916,-2.2917,-2.2916,-2.2915,-2.2929,-2.2924,-2.2919,-2.2918,-2.2918,-2.2917,0,-2.2509,-2.2524,-2.259,-2.2625,-2.2635,-2.2677,-2.2706,-2.2742,-2.2755,-2.2807,-2.2819,-2.2839,-2.2886,-2.2899,-2.2954,-2.2959,-2.3028,-2.3025,-2.3017,-2.3017,-2.3057,-2.3053,-2.3187,-2.3205,-2.3096,-2.3097,-2.3098,0,-2.2563,-2.2604,-2.2644,-2.2671,-2.2691,-2.2735,-2.2763,-2.2772,-2.2801,-2.2843,-2.2874,-2.292,-2.2958,-2.3033,-2.3053,-2.3096,-2.3092,-2.3137,-2.3098,-2.3096,-2.3092,-2.3089,-2.3093,-2.3143,-2.3144,-2.3145,-2.3146,0,-2.2658,-2.2665,-2.2705,-2.2749,-2.2782,-2.2817,-2.285,-2.2873,-2.2887,-2.292,-2.2968,-2.2998,-2.3056,-2.3102,-2.3146,-2.3165,-2.3158,-2.3158,-2.317,-2.3168,-2.3162,-2.3165,-2.3036,-2.3155,-2.3154,-2.3153,-2.3153,-2.3152,-2.2725,-2.2761,-2.2795,-2.284,-2.2867,-2.2899,-2.2934,-2.2953,-2.2994,-2.3042,-2.3046,-2.3098,-2.3132,-2.319,-2.3212,-2.3253,-2.3239,-2.3257,-2.3261,-2.3264,-2.3267,-2.3157,-2.3261,-2.3261,-2.3261,-2.3261,-2.326,0,-2.2818,-2.2841,-2.2883,-2.293,-2.2967,-2.2959,-2.2996,-2.3026,-2.3073,-2.3105,-2.3143,-2.3199,-2.3245,-2.3269,-2.3314,-2.3343,-2.3341,-2.3354,-2.3351,-2.3355,-2.3277,-2.3262,-2.3355,-2.3355,-2.3355,-2.3355,-2.3355,-2.3355,-2.2871,-2.2932,-2.2942,-2.3016,-2.3038,-2.309,-2.3112,-2.3141,-2.3167,-2.3231,-2.3269,-2.3285,-2.3314,-2.3362,-2.3403,-2.3409,-2.3426,-2.3441,-2.3445,-2.3371,-2.3361,-2.3352,-2.3337,-2.3444,-2.3445,-2.352,-2.352,-2.3521]},{"header":{"parameterUnit":"m.s-1","parameterCategory":1,"la1":30.2991,"la2":30.254,"lo1":-89.0895,"lo2":-89.0444,"dy":0.0017,"dx":0.0017,"nx":28,"ny":28,"refTime":"2024-10-19T03:00:00:Z","depth":0,"parameterNumber":3,"parameterNumberName":"V-component_of_WINDS"},"data":[0,0,0,0,0,0,0,0,0,0,0,0,0,0,0,0,0,0,0,0,0,0,0,0,0,0,0,0,0,0,0,0,0,0,0,0,0,0,0,0,0,0,0,0,0,0,0,0,0,0,0,0,0,0,0,0,0,0,-2.535,-2.5351,0,-2.5482,-2.5484,-2.5485,-2.5519,-2.5518,-2.5517,-2.5516,-2.5648,-2.5652,-2.5657,0,0,0,0,0,0,0,0,0,0,0,0,0,-2.5124,-2.5128,-2.535,-2.5352,-2.5353,-2.5482,-2.5484,-2.5486,-2.5519,-2.5518,-2.5517,-2.5516,-2.5647,-2.5652,-2.5657,0,0,0,0,0,0,0,0,0,0,0,0,0,-2.5236,-2.513,-2.535,-2.5386,-2.539,-2.5482,-2.5484,-2.5486,-2.5519,-2.5518,-2.5517,-2.5516,-2.5645,-2.5651,-2.5658,-2.5722,0,0,-2.5677,-2.568,0,0,0,0,0,0,0,0,-2.5229,-2.5244,-2.5379,-2.5383,-2.5389,-2.5483,-2.5453,-2.5565,-2.552,-2.547,-2.5516,-2.5515,-2.5594,-2.5605,-2.5632,-2.5728,-2.5734,-2.5678,-2.5682,-2.5685,-2.5686,0,0,0,0,0,0,0,-2.5222,-2.5239,-2.5402,-2.5381,-2.5387,-2.5394,-2.5409,-2.5474,-2.5537,-2.5474,-2.5477,-2.5492,-2.5596,-2.5626,-2.5635,-2.5736,-2.5678,-2.5683,-2.5687,-2.569,-2.5892,-2.5894,0,0,0,0,0,0,-2.5208,-2.5232,-2.5398,-2.5406,-2.5304,-2.5399,-2.5416,-2.5454,-2.5537,-2.5548,-2.5493,-2.5494,-2.5615,-2.5628,-2.564,-2.5721,-2.5685,-2.5691,-2.5694,-2.5891,-2.5893,-2.5894,0,0,0,0,0,0,-2.5203,-2.5223,-2.5393,-2.532,-2.5342,-2.5405,-2.5447,-2.5457,-2.5486,-2.5551,-2.5562,-2.5512,-2.5615,-2.5631,-2.5702,-2.5726,-2.5693,-2.5699,-2.5889,-2.5891,-2.5893,-2.5883,0,0,0,0,0,0,-2.5197,-2.5221,-2.5246,-2.532,-2.5346,-2.5453,-2.5449,-2.546,-2.5498,-2.5499,-2.5571,-2.5582,-2.5615,-2.5692,-2.5708,-2.5734,-2.5704,-2.5887,-2.589,-2.5893,-2.5882,-2.5885,-2.5888,0,0,0,0,0,-2.5188,-2.5237,-2.5247,-2.5267,-2.5379,-2.5454,-2.5469,-2.5507,-2.5499,-2.5525,-2.5567,-2.558,-2.5721,-2.5699,-2.5717,-2.5746,-2.5886,-2.5889,-2.5892,-2.5881,-2.5885,-2.5888,0,0,0,0,0,0,-2.5162,-2.5247,-2.5259,-2.5334,-2.5387,-2.546,-2.5493,-2.551,-2.5565,-2.5564,-2.5608,-2.5624,-2.5692,-2.5726,-2.57,-2.5813,-2.5803,-2.5811,-2.5788,-2.5792,-2.5795,-2.5785,-2.571,0,0,0,0,0,-2.5165,-2.522,-2.5291,-2.535,-2.5376,-2.543,-2.5464,-2.5489,-2.5545,-2.5567,-2.5614,-2.5667,-2.5724,-2.576,-2.5816,-2.5887,-2.5904,-2.5916,-2.5919,-2.5921,-2.5927,-2.5968,-2.5975,-2.5905,-2.5905,-2.5905,0,0,-2.5172,-2.5225,-2.5257,-2.5346,-2.539,-2.5445,-2.5448,-2.5506,-2.5547,-2.5576,-2.5646,-2.5682,-2.5745,-2.5816,-2.585,-2.5847,-2.595,-2.5926,-2.5927,-2.5932,-2.5972,-2.5979,-2.5985,-2.5908,-2.5907,-2.5907,0,0,-2.5212,-2.5258,-2.5312,-2.5357,-2.5424,-2.546,-2.5473,-2.5544,-2.557,-2.5642,-2.5664,-2.5713,-2.581,-2.5854,-2.5888,-2.5947,-2.5961,-2.5964,-2.5979,-2.6019,-2.6024,-2.6029,-2.605,-2.6057,-2.5969,-2.5969,-2.5969,0,-2.5211,-2.5296,-2.5338,-2.5395,-2.5434,-2.5464,-2.5519,-2.556,-2.5641,-2.5667,-2.5662,-2.5785,-2.5829,-2.5912,-2.5926,-2.5953,-2.5969,-2.5955,-2.602,-2.6026,-2.6031,-2.6052,-2.6059,-2.5969,-2.5969,-2.5969,-2.5969,0,-2.5292,-2.5351,-2.5386,-2.5466,-2.5509,-2.5564,-2.5614,-2.5652,-2.5674,-2.571,-2.5783,-2.5837,-2.5905,-2.5926,-2.5947,-2.6013,-2.6009,-2.6012,-2.6003,-2.6037,-2.6057,-2.6065,-2.5969,-2.5969,-2.5969,-2.5969,0,0,-2.5318,-2.5421,-2.5434,-2.5471,-2.5548,-2.5594,-2.5651,-2.5719,-2.575,-2.5806,-2.5855,-2.5937,-2.5941,-2.598,-2.6007,-2.6042,-2.6085,-2.6041,-2.6043,-2.6047,-2.6161,-2.6157,-2.6166,-2.6095,-2.6097,-2.6098,-2.6155,0,-2.5367,-2.5472,-2.5512,-2.5598,-2.5652,-2.5683,-2.5733,-2.5785,-2.5821,-2.5872,-2.5911,-2.5969,-2.597,-2.5994,-2.603,-2.6072,-2.6108,-2.6069,-2.6141,-2.6143,-2.6124,-2.6176,-2.6173,-2.6224,-2.6163,-2.6165,-2.6166,0,-2.5439,-2.5497,-2.5588,-2.566,-2.5685,-2.5729,-2.5795,-2.5843,-2.5904,-2.5927,-2.5972,-2.5997,-2.6058,-2.6046,-2.6131,-2.6103,-2.6135,-2.616,-2.6163,-2.6171,-2.6156,-2.6185,-2.6242,-2.6249,-2.6179,-2.6178,-2.6177,0,-2.5449,-2.555,-2.5618,-2.5648,-2.5734,-2.5764,-2.5801,-2.586,-2.5899,-2.5956,-2.5981,-2.6044,-2.6079,-2.6127,-2.6168,-2.6155,-2.6249,-2.624,-2.6269,-2.6268,-2.6287,-2.6285,-2.6349,-2.6308,-2.6308,-2.6308,-2.6308,0,-2.55,-2.5554,-2.5624,-2.5665,-2.5727,-2.5773,-2.5833,-2.5872,-2.5924,-2.5974,-2.6003,-2.6049,-2.61,-2.6153,-2.6185,-2.625,-2.6265,-2.6286,-2.6294,-2.6283,-2.6281,-2.6304,-2.6302,-2.631,-2.631,-2.6309,-2.6309,0,-2.5521,-2.5569,-2.5646,-2.5721,-2.5741,-2.5784,-2.5848,-2.5889,-2.5927,-2.5989,-2.6007,-2.6066,-2.6129,-2.6175,-2.6256,-2.6278,-2.6347,-2.6355,-2.6327,-2.6331,-2.6359,-2.6355,-2.644,-2.6453,-2.6403,-2.6403,-2.6404,0,-2.555,-2.5593,-2.5674,-2.571,-2.5747,-2.5804,-2.5844,-2.5891,-2.5931,-2.6004,-2.6036,-2.6102,-2.6157,-2.6256,-2.6306,-2.6368,-2.6378,-2.6403,-2.6387,-2.6375,-2.6378,-2.6375,-2.6379,-2.6405,-2.6405,-2.6405,-2.6406,0,-2.5596,-2.5619,-2.5676,-2.5742,-2.5789,-2.5843,-2.5897,-2.5925,-2.5981,-2.6025,-2.6091,-2.6133,-2.6217,-2.6282,-2.6349,-2.6386,-2.6405,-2.641,-2.6421,-2.641,-2.6392,-2.6402,-2.6333,-2.6408,-2.6408,-2.6408,-2.6407,-2.6407,-2.5622,-2.5663,-2.5726,-2.5789,-2.5835,-2.5886,-2.5929,-2.5973,-2.6029,-2.6102,-2.6126,-2.6194,-2.6254,-2.6347,-2.6385,-2.6439,-2.6438,-2.6452,-2.6456,-2.6459,-2.6458,-2.6384,-2.6451,-2.6451,-2.6451,-2.6451,-2.6451,0,-2.5671,-2.5714,-2.5771,-2.5847,-2.5897,-2.5912,-2.5973,-2.6013,-2.6073,-2.6128,-2.6183,-2.6258,-2.6322,-2.6377,-2.6443,-2.6475,-2.6485,-2.649,-2.6488,-2.6497,-2.6455,-2.644,-2.6481,-2.6481,-2.6481,-2.6481,-2.6481,-2.6481,-2.5701,-2.5771,-2.5801,-2.5893,-2.5935,-2.6003,-2.6037,-2.6084,-2.6128,-2.6212,-2.6265,-2.6302,-2.6357,-2.6427,-2.6486,-2.65,-2.6523,-2.6526,-2.6543,-2.6503,-2.6499,-2.6496,-2.6482,-2.6531,-2.6531,-2.658,-2.658,-2.658]}]]